Regional Weather Roundup
Issued by NWS Cleveland, OH

Home | Current Version | Previous Version | Graphics & Text | Print | Product List | Glossary On
Versions: 1 2 3 4 5 6 7 8 9 10 11 12 13 14 15 16 17 18 19 20 21 22 23 24 25 26 27 28 29 30 31 32 33 34 35 36 37 38 39 40 41 42 43 44 45 46 47 48 49 50
732
ASUS41 KCLE 231010
RWRCLE
OHIO REGIONAL WEATHER ROUNDUP
NATIONAL WEATHER SERVICE CLEVELAND, OH
600 AM EDT FRI JUN 23 2017

NOTE: "FAIR" INDICATES FEW OR NO CLOUDS BELOW 12,000 FEET WITH NO
SIGNIFICANT WEATHER AND/OR OBSTRUCTIONS TO VISIBILITY.

OHZ001>008-015>018-024>027-034-035-043-044-231100-
   NORTHWEST OHIO

CITY           SKY/WX    TMP DP  RH WIND       PRES   REMARKS
DEFIANCE       RAIN      70  69  97 SW9       29.68F FOG
FINDLAY        CLOUDY    73  68  84 SW15      29.69F
TOLEDO EXPRESS TSTM      70  70 100 S8        29.67S FOG
TOLEDO EXEC    LGT RAIN  71  70  96 S8        29.69S FOG
LIMA           CLOUDY    71  71 100 SW12      29.72S
$$

OHZ009>014-019>023-028>033-038-089-231100-
   NORTHEAST OHIO

CITY           SKY/WX    TMP DP  RH WIND       PRES   REMARKS
CLE-HOPKINS    MOCLDY    74  67  78 S13       29.73S THUNDER
CLE-LAKEFRONT  MOCLDY    74  65  73 S14G22    29.70F
CUY CO. ARPT   NOT AVBL
LORAIN-ELYRIA  TSTM      69  64  84 S10       29.72F
ASHTABULA      PTCLDY    71  67  87 S12       29.74F
AKRON-CANTON   CLOUDY    72  66  81 SW12      29.76F
WOOSTER        LGT RAIN  69  67  93 S12       29.76F
MANSFIELD      LGT RAIN  69  69 100 S12       29.75S FOG
YOUNGSTOWN     CLOUDY    71  65  81 S9        29.76F
$$

OHZ042-051>053-060>062-070>072-077>081-231100-
  SOUTHWEST OHIO

CITY           SKY/WX    TMP DP  RH WIND       PRES   REMARKS
CINC-COVINGTON CLOUDY    74  72  93 S10       29.78F
CINC-LUNKEN    LGT RAIN  74  74 100 S10       29.78F
HAMILTON       CLOUDY    75  73  93 SW6       29.77F
DAYTON         CLOUDY    73  71  93 SW13      29.77S
WRIGHT-PAT AFB DRIZZLE   73  73 100 SW14      29.76S
DAYTON GENERAL CLOUDY    73  71  93 SW8       29.77S
WILMINGTON     CLOUDY    72  72 100 SW16G23   29.78S
$$

OHZ036-037-039>041-045>050-054>059-063>069-073>076-082>088-231100-
  CENTRAL AND SOUTHEAST OHIO

CITY           SKY/WX    TMP DP  RH WIND       PRES   REMARKS
COLUMBUS       DRIZZLE   72  72 100 S9        29.77S
OSU AIRPORT    CLOUDY    72  72 100 SW12      29.76F
BOLTON FIELD   NOT AVBL
RICKENBACK AFB RAIN      70  70 100 S8        29.77F
NEWARK         LGT RAIN  72  70  93 SW9       29.78S FOG
MARION         NOT AVBL
LANCASTER      LGT RAIN  71  70  96 SW8       29.80S
ZANESVILLE     CLOUDY    70  68  93 SW8       29.79S
NEW PHILLY     NOT AVBL
$$




USA.gov is the U.S. government's official web portal to all federal, state and local government web resources and services.